Voltar ao catálogo

STARLINK-31787

AtivoComunicaçõesVLEO
NORAD 59650·PAYLOAD·🇺🇸 United States

Lançado May 3, 2024 de Cape Canaveral Space Force Station

Loading…

Próximas Passagens (próximas 24 horas)

TLE

AtualizadoSource: CelesTrak SupGP

Época: Sep 15, 2026, 02:43 UTC

1 59650C 24082V   26258.11368056  .00037757  00000+0  13678-2 0  2587
2 59650  42.9994 150.0448 0001324 275.4354  18.6581 15.27554837    13

Acompanhe STARLINK-31787 em tempo real com AllMySat

Download on the App Store